Weather History for Gillette, WY

Change the Weather History Date:

Monday, July 14, 2014

  Actual Average Record
Temperature  
Mean Temperature 62 °F 72 °F  
Max Temperature 76 °F 87 °F 107 °F (1931)
Min Temperature 48 °F 56 °F 44 °F (1973)
Degree Days  
Heating Degree Days 3 0  
Month to date heating degree days 13 14  
Since 1 June heating degree days 205 156  
Since 1 July heating degree days 13 14  
Cooling Degree Days 0 7  
Month to date cooling degree days 72 83  
Year to date cooling degree days 95 151  
Since 1 June cooling degree days 87 143  
Growing Degree Days 12 (Base 50)    
Moisture  
Dew Point 40 °F    
Average Humidity 50    
Maximum Humidity 80    
Minimum Humidity 20    
Precipitation  
Precipitation 0.00 in 0.06 in 0.70 in (1948)
Month to date precipitation 0.08 0.74  
Year to date precipitation 12.81 8.61  
Sea Level Pressure  
Sea Level Pressure 30.21 in    
Wind  
Wind Speed 8 mph (NNE)    
Max Wind Speed 20 mph    
Max Gust Speed 25 mph    
Visibility 9 miles    
Events      
T = Trace of Precipitation, MM = Missing Value Source: NWS Daily Summary

Daily Weather History Graph

Daily Weather History Graph

Search for Another Location

Airport:

Trip Planner

Search our weather history database for the weather conditions in past years. The results will help you decide how hot, cold, wet, or windy it might be!

Date:

Astronomy

Jul. 14, 2014 Rise Set
Actual Time 5:31 AM MDT 8:44 PM MDT
Civil Twilight 4:55 AM MDT 9:19 PM MDT
Nautical Twilight 4:10 AM MDT 10:05 PM MDT
Astronomical Twilight 3:13 AM MDT 11:00 PM MDT
Moon 10:06 PM MDT (7/14) 8:25 AM MDT (7/14)
Length of Visible Light 16h 23m
Length of Day
15h 13m
Waning Gibbous, 92% of the Moon is Illuminated
Jul 14
Waning Gibbous
Jul 18
Last Quarter
Jul 26
New
Aug 3
First Quarter
Aug 10
Full

Hourly Weather History & Observations

Time (MDT) Temp. Dew Point Humidity Pressure Visibility Wind Dir Wind Speed Gust Speed Precip Events Conditions
12:53 AM 54.0 °F 46.9 °F 77% 30.15 in 8.0 mi WSW 3.5 mph - N/A   Clear
1:53 AM 53.1 °F 46.9 °F 80% 30.16 in 8.0 mi Calm Calm - N/A   Clear
2:53 AM 53.1 °F 46.9 °F 80% 30.15 in 8.0 mi West 3.5 mph - N/A   Clear
3:53 AM 55.0 °F 46.0 °F 72% 30.15 in 9.0 mi Calm Calm - N/A   Clear
4:53 AM 53.1 °F 46.0 °F 77% 30.17 in 9.0 mi NNW 5.8 mph - N/A   Clear
5:53 AM 50.0 °F 44.1 °F 80% 30.20 in 7.0 mi NNW 4.6 mph - N/A   Clear
6:53 AM 55.9 °F 45.0 °F 67% 30.21 in 7.0 mi NNW 3.5 mph - N/A   Clear
7:53 AM 60.1 °F 39.9 °F 47% 30.22 in 7.0 mi North 3.5 mph - N/A   Clear
8:53 AM 64.0 °F 36.0 °F 35% 30.24 in 9.0 mi NNE 5.8 mph - N/A   Clear
9:53 AM 64.9 °F 36.0 °F 34% 30.26 in 9.0 mi NNE 8.1 mph - N/A   Clear
10:53 AM 66.9 °F 37.9 °F 34% 30.26 in 9.0 mi NNE 6.9 mph - N/A   Clear
11:53 AM 70.0 °F 37.9 °F 31% 30.27 in 10.0 mi NNE 11.5 mph 20.7 mph N/A   Clear
12:53 PM 71.6 °F 32.0 °F 23% 30.34 in 10.0 mi North 15.0 mph - N/A   Clear
2:53 PM 73.9 °F 34.0 °F 23% 30.24 in 10.0 mi North 5.8 mph - N/A   Clear
3:53 PM 75.2 °F 33.8 °F 22% 30.31 in 10.0 mi North 8.1 mph 17.3 mph N/A   Clear
4:53 PM 75.0 °F 33.1 °F 22% 30.20 in 10.0 mi NNE 13.8 mph 18.4 mph N/A   Clear
5:53 PM 75.0 °F 35.1 °F 23% 30.19 in 10.0 mi NE 10.4 mph - N/A   Clear
6:53 PM 72.0 °F 39.0 °F 30% 30.19 in 10.0 mi NE 9.2 mph - N/A   Clear
7:53 PM 68.0 °F 39.9 °F 36% 30.18 in 10.0 mi ENE 8.1 mph - N/A   Clear
8:53 PM 59.0 °F 39.0 °F 48% 30.19 in 10.0 mi ESE 3.5 mph - N/A   Clear
9:53 PM 60.1 °F 41.0 °F 49% 30.20 in 10.0 mi North - - N/A   Clear
10:53 PM 59.0 °F 42.1 °F 53% 30.19 in 10.0 mi SSE 9.2 mph - N/A   Clear